[[{"header":{"parameterUnit":"m.s-1","parameterCategory":1,"la1":30.2991,"la2":30.254,"lo1":-89.0895,"lo2":-89.0444,"dy":0.0017,"dx":0.0017,"nx":28,"ny":28,"refTime":"2025-06-14T03:00:00:Z","depth":0,"parameterNumber":2,"parameterNumberName":"U-component_of_WINDS"},"data":[0,0,0,0,0,0,0,0,0,0,0,0,0,0,0,0,0,0,0,0,0,0,0,0,0,0,0,0,0,0,0,0,0,0,0,0,0,0,0,0,0,0,0,0,0,0,0,0,0,0,0,0,0,0,0,0,0,0,1.0743,1.0744,0,1.0831,1.0832,1.0833,1.0894,1.0895,1.0895,1.0896,1.0988,1.099,1.0992,0,0,0,0,0,0,0,0,0,0,0,0,0,1.063,1.0631,1.0743,1.0744,1.0745,1.0831,1.0832,1.0833,1.0894,1.0895,1.0895,1.0896,1.0987,1.099,1.0992,0,0,0,0,0,0,0,0,0,0,0,0,0,1.0694,1.0632,1.0742,1.0786,1.079,1.0831,1.0832,1.0834,1.0894,1.0895,1.0895,1.0896,1.0987,1.099,1.0993,1.0998,0,0,1.1002,1.1003,0,0,0,0,0,0,0,0,1.0691,1.0698,1.0778,1.0783,1.0788,1.0852,1.0826,1.0889,1.0894,1.0855,1.0896,1.0896,1.0942,1.0949,1.0964,1.1002,1.1006,1.1002,1.1004,1.1005,1.1006,0,0,0,0,0,0,0,1.0686,1.0695,1.0778,1.0779,1.0785,1.0801,1.0811,1.0838,1.0894,1.0858,1.0863,1.0872,1.0945,1.0961,1.0967,1.1007,1.1002,1.1005,1.1007,1.1008,1.1055,1.1055,0,0,0,0,0,0,1.0674,1.0691,1.0775,1.078,1.074,1.0803,1.0814,1.0831,1.0894,1.0904,1.0872,1.0875,1.0956,1.0963,1.097,1.0981,1.1005,1.1008,1.101,1.1056,1.1055,1.1054,0,0,0,0,0,0,1.0672,1.0681,1.0771,1.0737,1.075,1.0804,1.0823,1.0832,1.0848,1.0904,1.0914,1.0877,1.0957,1.0966,1.0991,1.0985,1.101,1.1012,1.1056,1.1056,1.1055,1.1002,0,0,0,0,0,0,1.0668,1.068,1.0682,1.0736,1.0751,1.0789,1.0822,1.0834,1.0853,1.0858,1.0912,1.0922,1.0958,1.0986,1.0994,1.099,1.1015,1.1057,1.1056,1.1055,1.1005,1.1,1.0995,0,0,0,0,0,1.0664,1.0664,1.0681,1.0691,1.0754,1.0788,1.0797,1.0838,1.0852,1.0855,1.0891,1.092,1.0985,1.0988,1.0997,1.0994,1.1058,1.1056,1.1055,1.1007,1.1001,1.0996,0,0,0,0,0,0,1.0607,1.0672,1.0692,1.0709,1.0743,1.0799,1.0803,1.083,1.0861,1.0864,1.0915,1.0926,1.0946,1.0973,1.0975,1.1003,1.1025,1.1025,1.0985,1.098,1.0975,1.0968,1.1017,0,0,0,0,0,1.0597,1.0618,1.0674,1.0684,1.0699,1.0748,1.0765,1.0793,1.0831,1.0845,1.0883,1.0919,1.0947,1.0965,1.0994,1.1009,1.1022,1.1012,1.1007,1.1003,1.1003,1.1014,1.101,1.105,1.105,1.105,0,0,1.0575,1.0613,1.0624,1.0673,1.0703,1.0725,1.076,1.0782,1.0799,1.0849,1.0874,1.0903,1.0946,1.0966,1.0977,1.0989,1.0995,1.1001,1.0998,1.1,1.1012,1.1008,1.1005,1.1049,1.1049,1.105,0,0,1.0547,1.0578,1.059,1.0619,1.0663,1.0695,1.0698,1.075,1.0771,1.0797,1.0836,1.0857,1.0905,1.0935,1.0956,1.094,1.0968,1.0948,1.0924,1.0934,1.0931,1.0929,1.0924,1.0921,1.0948,1.0948,1.0948,0,1.0515,1.0549,1.0593,1.0612,1.0634,1.068,1.0693,1.0719,1.077,1.0784,1.0797,1.0859,1.0891,1.0919,1.0915,1.093,1.0936,1.0943,1.0928,1.0926,1.0924,1.092,1.0918,1.0945,1.0946,1.0946,1.0946,0,1.0508,1.0531,1.0536,1.0584,1.0606,1.0622,1.0669,1.0686,1.0713,1.0744,1.0771,1.0812,1.085,1.0859,1.0886,1.0891,1.0897,1.0918,1.0941,1.0917,1.0914,1.0913,1.0942,1.0943,1.0943,1.0944,0,0,1.0447,1.0519,1.052,1.0543,1.0595,1.0615,1.0633,1.0671,1.0685,1.0719,1.0737,1.0776,1.0797,1.0821,1.0851,1.086,1.0846,1.088,1.0882,1.0873,1.0855,1.0839,1.0837,1.0865,1.0865,1.0865,1.0852,0,1.0427,1.0463,1.0503,1.0525,1.0547,1.0592,1.0609,1.0643,1.0673,1.0698,1.0732,1.0759,1.0783,1.0798,1.0809,1.0845,1.0843,1.0847,1.0883,1.0883,1.0871,1.0835,1.0818,1.0804,1.0851,1.0851,1.0851,0,1.0409,1.0441,1.0465,1.0516,1.0527,1.0541,1.0579,1.0602,1.0642,1.0664,1.0691,1.0724,1.0747,1.0767,1.08,1.0802,1.0819,1.0839,1.084,1.0845,1.0866,1.084,1.08,1.0798,1.0849,1.0849,1.0849,0,1.0362,1.0411,1.0432,1.045,1.0511,1.052,1.0545,1.0587,1.0607,1.064,1.0654,1.069,1.0709,1.0737,1.0779,1.0789,1.0808,1.0831,1.0828,1.0826,1.083,1.0829,1.0793,1.084,1.084,1.084,1.084,0,1.0337,1.035,1.0412,1.0425,1.0442,1.0488,1.0504,1.0533,1.057,1.059,1.0631,1.0649,1.0703,1.0728,1.0762,1.0785,1.0793,1.0812,1.0821,1.0809,1.0806,1.0821,1.0823,1.0839,1.084,1.084,1.084,0,1.0287,1.0329,1.0355,1.041,1.0425,1.0434,1.0482,1.0497,1.053,1.0555,1.0564,1.0615,1.0647,1.0692,1.0737,1.076,1.0778,1.0792,1.0764,1.0769,1.0763,1.0763,1.0736,1.0735,1.0781,1.0781,1.078,0,1.0268,1.0279,1.0335,1.0352,1.0376,1.0402,1.0422,1.0469,1.0489,1.0537,1.0546,1.0581,1.0611,1.066,1.0702,1.0737,1.0753,1.0741,1.0758,1.0746,1.0753,1.0752,1.0754,1.0736,1.0735,1.0735,1.0734,0,1.023,1.025,1.0278,1.0314,1.0338,1.0368,1.0401,1.0412,1.0466,1.0486,1.0519,1.0543,1.0589,1.0624,1.0665,1.0692,1.0722,1.0728,1.073,1.0717,1.0701,1.071,1.0753,1.0729,1.0729,1.073,1.073,1.073,1.0195,1.0208,1.0249,1.028,1.0309,1.0339,1.0356,1.0391,1.0418,1.046,1.0486,1.0517,1.0559,1.0617,1.0643,1.0669,1.0682,1.0683,1.0684,1.0683,1.0679,1.0696,1.0677,1.0677,1.0678,1.0678,1.0678,0,1.016,1.0189,1.0216,1.026,1.0285,1.031,1.0348,1.0367,1.0394,1.043,1.0459,1.0497,1.0531,1.0576,1.0613,1.0625,1.064,1.0634,1.0633,1.0639,1.0666,1.0662,1.0621,1.0621,1.0621,1.0621,1.0621,1.0621,1.0144,1.0166,1.0192,1.023,1.026,1.0291,1.031,1.0338,1.0367,1.0408,1.0436,1.0465,1.0505,1.0545,1.0578,1.059,1.0602,1.0592,1.0608,1.0632,1.0637,1.0642,1.0638,1.0594,1.0594,1.058,1.058,1.058]},{"header":{"parameterUnit":"m.s-1","parameterCategory":1,"la1":30.2991,"la2":30.254,"lo1":-89.0895,"lo2":-89.0444,"dy":0.0017,"dx":0.0017,"nx":28,"ny":28,"refTime":"2025-06-14T03:00:00:Z","depth":0,"parameterNumber":3,"parameterNumberName":"V-component_of_WINDS"},"data":[0,0,0,0,0,0,0,0,0,0,0,0,0,0,0,0,0,0,0,0,0,0,0,0,0,0,0,0,0,0,0,0,0,0,0,0,0,0,0,0,0,0,0,0,0,0,0,0,0,0,0,0,0,0,0,0,0,0,2.8998,2.8998,0,2.8906,2.8905,2.8904,2.8905,2.8907,2.8908,2.8909,2.8806,2.8802,2.8799,0,0,0,0,0,0,0,0,0,0,0,0,0,2.9168,2.9165,2.8999,2.8997,2.8996,2.8906,2.8905,2.8903,2.8905,2.8907,2.8908,2.891,2.8808,2.8803,2.8798,0,0,0,0,0,0,0,0,0,0,0,0,0,2.9087,2.9164,2.8999,2.8987,2.8985,2.8906,2.8905,2.8903,2.8905,2.8907,2.8909,2.8911,2.8809,2.8803,2.8798,2.8723,0,0,2.878,2.8777,0,0,0,0,0,0,0,0,2.9091,2.908,2.8989,2.8987,2.8985,2.8919,2.8927,2.8842,2.8904,2.8935,2.8909,2.8911,2.8842,2.8833,2.8812,2.8718,2.8714,2.8779,2.8775,2.8773,2.8771,0,0,0,0,0,0,0,2.9097,2.9084,2.8962,2.8988,2.8985,2.8983,2.8973,2.8911,2.8878,2.8932,2.8932,2.8922,2.8841,2.8817,2.8809,2.8712,2.8779,2.8774,2.877,2.8768,2.855,2.8547,0,0,0,0,0,0,2.9106,2.9089,2.8965,2.8959,2.9044,2.8978,2.8968,2.8938,2.8879,2.8872,2.892,2.8922,2.8826,2.8816,2.8805,2.8712,2.8773,2.8767,2.8764,2.8552,2.8549,2.8547,0,0,0,0,0,0,2.911,2.9095,2.8968,2.9024,2.9008,2.8973,2.894,2.8935,2.8912,2.887,2.8864,2.8903,2.8827,2.8814,2.8743,2.8709,2.8765,2.8759,2.8555,2.8551,2.8548,2.8526,0,0,0,0,0,0,2.9115,2.9097,2.907,2.9024,2.9005,2.891,2.8938,2.8932,2.8903,2.8904,2.8852,2.8845,2.8828,2.8752,2.8738,2.8702,2.8755,2.8557,2.8553,2.8549,2.853,2.8523,2.8517,0,0,0,0,0,2.9121,2.9067,2.9069,2.9054,2.8971,2.8909,2.8898,2.8881,2.89,2.8871,2.8844,2.8847,2.8715,2.8745,2.8728,2.869,2.856,2.8554,2.8549,2.8533,2.8524,2.8517,0,0,0,0,0,0,2.9108,2.906,2.9062,2.8992,2.8955,2.8909,2.8873,2.8873,2.8827,2.883,2.881,2.8798,2.8727,2.8702,2.8736,2.8613,2.8639,2.8631,2.8633,2.8624,2.8617,2.8624,2.875,0,0,0,0,0,2.9097,2.9053,2.9013,2.8954,2.8936,2.8908,2.888,2.887,2.883,2.8813,2.8781,2.8739,2.8688,2.8655,2.8606,2.8527,2.8513,2.8492,2.8485,2.848,2.8472,2.8425,2.8415,2.853,2.853,2.853,0,0,2.9074,2.9043,2.9015,2.8951,2.8921,2.8872,2.8894,2.8842,2.8805,2.8804,2.8736,2.8711,2.8662,2.8587,2.8552,2.8563,2.8437,2.8473,2.847,2.8464,2.8419,2.8408,2.8398,2.8526,2.8527,2.8528,0,0,2.9006,2.898,2.8927,2.8897,2.8852,2.8833,2.882,2.8774,2.8758,2.869,2.8688,2.8642,2.8555,2.852,2.8491,2.8408,2.8407,2.8393,2.8356,2.8311,2.8302,2.8294,2.8262,2.8251,2.8385,2.8385,2.8385,0,2.8982,2.8912,2.8899,2.8847,2.8817,2.8817,2.8761,2.8731,2.8671,2.8649,2.8664,2.8554,2.8522,2.8437,2.8416,2.8394,2.8376,2.8398,2.8305,2.8297,2.8289,2.8258,2.8246,2.8384,2.8384,2.8384,2.8384,0,2.8883,2.8834,2.8797,2.8741,2.8707,2.8653,2.8629,2.8596,2.8589,2.8568,2.8496,2.8458,2.8399,2.8379,2.8371,2.8291,2.83,2.831,2.8335,2.8276,2.8247,2.8235,2.8381,2.8382,2.8382,2.8383,0,0,2.8804,2.8743,2.8729,2.8702,2.8652,2.8612,2.8557,2.8503,2.8473,2.8431,2.8382,2.8309,2.8317,2.8284,2.8272,2.8233,2.8166,2.8247,2.8245,2.8231,2.8073,2.8064,2.8051,2.8166,2.8164,2.8162,2.8076,0,2.873,2.8635,2.8621,2.8536,2.8489,2.8487,2.8438,2.84,2.8378,2.8333,2.8307,2.8255,2.8272,2.8251,2.8212,2.8183,2.8134,2.8189,2.8117,2.8115,2.8128,2.8036,2.8027,2.7947,2.8064,2.8063,2.8061,0,2.8631,2.8588,2.8499,2.8453,2.8433,2.839,2.8337,2.8295,2.825,2.8237,2.82,2.8192,2.8131,2.8161,2.8074,2.8112,2.8082,2.8062,2.8059,2.805,2.8083,2.8022,2.7922,2.7909,2.8043,2.8045,2.8046,0,2.8579,2.8499,2.8435,2.8413,2.8359,2.8328,2.8304,2.8261,2.8229,2.8182,2.816,2.8106,2.8076,2.8033,2.8009,2.8033,2.7924,2.7952,2.7908,2.7908,2.7883,2.7885,2.7775,2.7867,2.7868,2.7868,2.7868,0,2.8496,2.8441,2.8411,2.8372,2.8308,2.8292,2.8229,2.8204,2.8166,2.8119,2.8114,2.8069,2.8042,2.7993,2.7974,2.7903,2.789,2.7875,2.787,2.7875,2.7876,2.7853,2.7857,2.7865,2.7865,2.7866,2.7866,0,2.8427,2.8406,2.8335,2.829,2.8277,2.8233,2.8192,2.8151,2.813,2.807,2.8055,2.802,2.7961,2.7935,2.7861,2.7848,2.7768,2.7768,2.7783,2.7781,2.7738,2.7742,2.7607,2.7587,2.7695,2.7694,2.7694,0,2.8375,2.8333,2.8283,2.8253,2.8228,2.8179,2.8146,2.8126,2.8092,2.8037,2.8002,2.7944,2.7896,2.7801,2.7767,2.771,2.7707,2.7664,2.7698,2.7703,2.7703,2.7706,2.77,2.7657,2.7656,2.7655,2.7655,0,2.8284,2.8275,2.8229,2.8179,2.814,2.8099,2.8059,2.8033,2.8007,2.7967,2.7909,2.7872,2.7797,2.7738,2.7679,2.7649,2.7646,2.7644,2.7631,2.7633,2.7643,2.7635,2.7764,2.7647,2.7648,2.7648,2.7649,2.7649,2.822,2.8181,2.814,2.8089,2.8057,2.8018,2.7978,2.7952,2.7903,2.7843,2.7834,2.777,2.7723,2.7644,2.7613,2.756,2.757,2.7551,2.7546,2.7541,2.7537,2.7654,2.7549,2.755,2.755,2.755,2.755,0,2.8126,2.8099,2.8052,2.7997,2.7955,2.7959,2.7914,2.7878,2.7823,2.7781,2.7735,2.7665,2.7607,2.7569,2.7509,2.7474,2.7471,2.7459,2.746,2.7453,2.7533,2.755,2.7463,2.7463,2.7463,2.7463,2.7463,2.7463,2.8072,2.8007,2.7993,2.791,2.7883,2.7822,2.7796,2.7759,2.7726,2.7649,2.7602,2.7579,2.7537,2.7474,2.742,2.741,2.7387,2.7374,2.7364,2.7439,2.7448,2.7456,2.7472,2.737,2.737,2.7288,2.7287,2.7287]}]]